Rome, OR

9:16 PM MST on February 17, 2018 (GMT -0700)
Rome State

Weather History for KREO - January, 2014

Change the Weather History Date:

Friday, January 3, 2014

  Actual Average Record
Temperature  
Mean Temperature 37 °F 28 °F  
Max Temperature 55 °F 38 °F 55 °F (2014)
Min Temperature 19 °F 19 °F -10 °F (2013)
Degree Days  
Heating Degree Days 28 37  
Month to date heating degree days 89 111  
Since 1 July heating degree days 2798 2858  
Cooling Degree Days 0 0  
Month to date cooling degree days 0 0  
Year to date cooling degree days 0 0  
Moisture  
Dew Point 21 °F    
Average Humidity 50    
Maximum Humidity 78    
Minimum Humidity 21    
Precipitation  
Precipitation 0.00 in 0.03 in 0.45 in (1965)
Month to date precipitation 0.00 0.08  
Year to date precipitation 0.00 0.08  
Sea Level Pressure  
Sea Level Pressure 30.03 in    
Wind  
Wind Speed 8 mph (WNW)    
Max Wind Speed 22 mph    
Max Gust Speed 29 mph    
T = Trace of Precipitation, MM = Missing Value Source: NWS Daily Summary

Daily Weather History Graph

Daily Weather History Graph

Search for Another Location

Airport or City:

Trip Planner

Search our weather history database for the weather conditions in past years. The results will help you decide how hot, cold, wet, or windy it might be!

Date:

Astronomy

Jan. 03, 2014 Rise Set
Actual Time 7:21 AM PST 4:30 PM PST
Civil Twilight 6:49 AM PST 5:02 PM PST
Nautical Twilight 6:14 AM PST 5:38 PM PST
Astronomical Twilight 5:40 AM PST 6:12 PM PST
Moon 8:47 AM PST (1/3) 7:50 PM PST (1/3)
Length of Visible Light 10h 13m
Length of Day
9h 09m
Waxing Crescent, 8% of the Moon is Illuminated
Jan 3
Waxing Crescent
Jan 7
First Quarter
Jan 15
Full
Jan 23
Last Quarter
Jan 30
New

Hourly Weather History & Observations

Time (PST) Temp. Windchill Dew Point Humidity Pressure Visibility Wind Dir Wind Speed Gust Speed Precip Events Conditions
12:52 AM 30.9 °F 23.5 °F 25.0 °F 79% 30.08 in - WSW 8.1 mph - N/A   Unknown
1:52 AM 33.1 °F 26.1 °F 26.1 °F 75% 30.06 in - SSE 8.1 mph - N/A   Unknown
2:52 AM 36.0 °F 29.0 °F 27.0 °F 70% 30.07 in - SW 9.2 mph - N/A   Unknown
3:52 AM 37.9 °F - 28.0 °F 68% 30.03 in - Calm Calm - N/A   Unknown
4:52 AM 35.1 °F 28.6 °F 26.1 °F 70% 30.04 in - SSW 8.1 mph - N/A   Unknown
5:52 AM 37.9 °F 30.9 °F 27.0 °F 65% 30.01 in - SSW 10.4 mph - N/A   Unknown
6:52 AM 41.0 °F 39.0 °F 27.0 °F 57% 30.04 in - Variable 3.5 mph - N/A   Unknown
7:52 AM 46.0 °F 41.4 °F 28.0 °F 50% 30.05 in - West 9.2 mph - N/A   Unknown
8:52 AM 46.9 °F - 28.0 °F 48% 30.05 in - Calm Calm - N/A   Unknown
9:52 AM 53.1 °F - 28.9 °F 40% 30.04 in - Variable 3.5 mph - N/A   Unknown
10:52 AM 52.0 °F - 28.9 °F 41% 30.04 in - ENE 12.7 mph - N/A   Unknown
11:52 AM 53.1 °F - 28.9 °F 40% 29.98 in - East 4.6 mph - N/A   Unknown
12:52 PM 53.1 °F - 27.0 °F 37% 29.96 in - WNW 3.5 mph - N/A   Unknown
1:52 PM 54.0 °F - 26.1 °F 34% 29.94 in - WNW 4.6 mph - N/A   Unknown
2:52 PM 53.1 °F - 23.0 °F 31% 29.94 in - West 16.1 mph - N/A   Unknown
3:52 PM 50.0 °F - 19.9 °F 31% 29.94 in - WNW 13.8 mph 23.0 mph N/A   Unknown
4:52 PM 44.1 °F 37.4 °F 23.0 °F 43% 29.98 in - NW 13.8 mph - N/A   Unknown
5:52 PM 41.0 °F 32.8 °F 17.1 °F 38% 29.98 in - NW 16.1 mph - N/A   Unknown
6:52 PM 37.0 °F 30.4 °F 3.9 °F 25% 30.00 in - West 9.2 mph - N/A   Unknown
7:52 PM 37.0 °F 27.0 °F 1.9 °F 23% 30.01 in - NW 18.4 mph - N/A   Unknown
8:52 PM 32.0 °F 23.6 °F 6.1 °F 34% 30.07 in - NNW 10.4 mph - N/A   Unknown
9:52 PM 28.0 °F 22.8 °F 9.0 °F 45% 30.10 in - ENE 4.6 mph - N/A   Unknown
10:52 PM 21.0 °F 14.6 °F 9.0 °F 60% 30.12 in - East 4.6 mph - N/A   Unknown
11:52 PM 28.0 °F 24.2 °F 10.0 °F 47% 30.11 in - NNW 3.5 mph - N/A   Unknown